Location: Archemont
(49.1579°N, 1.7598°E)
Time: 10:31:21
(UTC+00:00)

S-56A Canister/Altair - Pass Details

Date: 22 April 2024
Orbit: 638 x 2488 km, 38.9° (Epoch: 20 May)

Event Time Altitude Azimuth Distance (km) Brightness Sun altitude
Rises 19:51:12 0° 263° (W) 3,613 11.9 -8.9°
Reaches altitude 10° 19:53:43 10° 254° (WSW) 2,868 11.1 -9.2°
Maximum altitude 19:59:55 33° 192° (SSW) 2,097 9.6 -10.1°
Enters shadow 20:07:51 12° 136° (SE) 3,850 10.4 -11.2°
Drops below altitude 10° 20:08:40 10° 134° (SE) 4,089 - -11.3°
Sets 20:13:00 0° 127° (SE) 5,387 - -11.8°
